Date String (YYYY-MM-DD hh:mm:ss) UTC,Instrument flags,Ambient pressure (hPa),Sample flow (lpm),Bypass flow (lpm),Sample temperature (°C),Ambient temperature (°C),ASC tube jacket temperature (°C),LED temperature (°C),Box temperature (°C),Sample RH (%),Mass concentration (μg/m³),Mass concentration (μg/m³)
DateTimeUTC,F1_M11,P_M11,Q1_M11,Q2_M11,T1_M11,T2_M11,T3_M11,T4_M11,T5_M11,U1_M11,X0_M11,X2_M11
2021-08-11 04:00:00,FlowAlarm;OPCInstrumentWarning,0828.3,5.00,0.00,29.0,25.7,00.0,38.2,30.5,15.3,0040.90,0028.31
2021-08-11 04:01:00,FlowAlarm;OPCInstrumentWarning,0828.2,5.01,0.00,28.9,26.1,00.0,38.1,30.6,15.7,0040.93,0028.28
2021-08-11 04:02:00,FlowAlarm;OPCInstrumentWarning,0828.2,5.00,0.00,28.8,26.5,00.0,38.1,30.7,15.5,0040.96,0028.38
2021-08-11 04:03:00,FlowAlarm;OPCInstrumentWarning,0828.2,5.00,0.00,28.8,26.9,00.0,38.1,30.8,15.4,0040.82,0028.47
2021-08-11 04:04:00,FlowAlarm;OPCInstrumentWarning,0828.2,5.01,0.00,28.9,27.3,00.0,38.1,30.9,15.5,0040.00,0028.51
2021-08-11 04:05:00,FlowAlarm;OPCInstrumentWarning,0828.2,4.98,0.00,28.9,27.6,00.0,38.1,30.9,15.5,0039.86,0028.51
2021-08-11 04:06:00,FlowAlarm;OPCInstrumentWarning,0828.2,5.01,0.00,29.0,27.9,00.0,38.1,31.0,15.5,0039.53,0028.51
2021-08-11 04:07:00,FlowAlarm;OPCInstrumentWarning,0828.3,5.01,0.00,29.0,28.1,00.0,38.1,31.1,15.4,0039.35,0028.55
2021-08-11 04:08:00,FlowAlarm;OPCInstrumentWarning,0828.2,4.99,0.00,29.1,28.2,00.0,38.1,31.1,15.4,0039.65,0028.65
2021-08-11 04:09:00,FlowAlarm;OPCInstrumentWarning,0828.3,5.01,0.00,29.1,28.4,00.0,38.2,31.2,15.3,0039.54,0028.64
2021-08-11 04:10:00,FlowAlarm;OPCInstrumentWarning,0828.3,4.98,0.00,29.2,28.5,00.0,38.2,31.2,15.3,0038.85,0028.62
2021-08-11 04:11:00,FlowAlarm;OPCInstrumentWarning,0828.4,5.01,0.00,29.3,28.6,00.0,38.2,31.3,15.1,0039.12,0028.58
2021-08-11 04:12:00,FlowAlarm;OPCInstrumentWarning,0828.2,5.01,0.00,29.3,28.7,00.0,38.3,31.3,14.9,0039.07,0028.52
2021-08-11 04:13:00,FlowAlarm;OPCInstrumentWarning,0828.2,5.00,0.00,29.3,27.5,00.0,38.3,31.1,15.0,0038.91,0028.39
2021-08-11 04:14:00,FlowAlarm;OPCInstrumentWarning,0828.2,4.99,0.00,29.2,25.7,00.0,38.2,30.6,15.1,0039.16,0028.32
2021-08-11 04:15:00,FlowAlarm;OPCInstrumentWarning,0828.1,4.99,0.00,29.0,25.5,00.0,38.2,30.5,15.0,0039.16,0028.18
2021-08-11 04:16:00,FlowAlarm;OPCInstrumentWarning,0828.3,5.00,0.00,28.9,25.9,00.0,38.2,30.6,14.8,0038.94,0028.02
2021-08-11 04:17:00,FlowAlarm;OPCInstrumentWarning,0828.1,5.02,0.00,28.9,26.3,00.0,38.1,30.7,15.2,0038.72,0027.88
2021-08-11 04:18:00,FlowAlarm;OPCInstrumentWarning,0828.1,5.01,0.00,28.9,26.7,00.0,38.1,30.8,15.2,0038.42,0027.77
2021-08-11 04:19:00,FlowAlarm;OPCInstrumentWarning,0828.2,5.00,0.00,28.9,27.1,00.0,38.1,30.8,15.0,0038.18,0027.65
2021-08-11 04:20:00,FlowAlarm;OPCInstrumentWarning,0828.1,4.98,0.00,28.9,27.5,00.0,38.1,30.9,15.1,0038.01,0027.52
2021-08-11 04:21:00,FlowAlarm;OPCInstrumentWarning,0828.1,5.00,0.00,29.0,27.8,00.0,38.1,31.0,15.3,0037.86,0027.43
2021-08-11 04:22:00,FlowAlarm;OPCInstrumentWarning,0828.1,5.02,0.00,29.0,28.0,00.0,38.1,31.0,15.1,0037.30,0027.40
2021-08-11 04:23:00,FlowAlarm;OPCInstrumentWarning,0828.1,4.99,0.00,29.1,28.2,00.0,38.2,31.1,15.3,0037.70,0027.40
2021-08-11 04:24:00,FlowAlarm;OPCInstrumentWarning,0828.1,5.02,0.00,29.1,28.3,00.0,38.2,31.2,15.3,0038.03,0027.48
2021-08-11 04:25:00,FlowAlarm;OPCInstrumentWarning,0828.1,4.99,0.00,29.2,28.4,00.0,38.2,31.2,15.3,0037.88,0027.49
2021-08-11 04:26:00,FlowAlarm;OPCInstrumentWarning,0828.1,5.02,0.00,29.2,28.6,00.0,38.2,31.3,15.3,0037.45,0027.55
2021-08-11 04:27:00,FlowAlarm;OPCInstrumentWarning,0828.2,5.00,0.00,29.3,28.7,00.0,38.3,31.3,15.2,0037.64,0027.65
2021-08-11 04:28:00,FlowAlarm;OPCInstrumentWarning,0828.2,5.00,0.00,29.3,28.3,00.0,38.3,31.2,15.1,0038.03,0027.76
2021-08-11 04:29:00,FlowAlarm;OPCInstrumentWarning,0828.1,5.00,0.00,29.2,26.3,00.0,38.3,30.7,15.4,0038.36,0027.84
2021-08-11 04:30:00,FlowAlarm;OPCInstrumentWarning,0828.0,5.02,0.00,29.1,25.3,00.0,38.3,30.4,15.6,0038.25,0027.82
2021-08-11 04:31:00,FlowAlarm;OPCInstrumentWarning,0828.1,5.00,0.00,29.0,25.6,00.0,38.2,30.5,15.5,0038.33,0027.89
2021-08-11 04:32:00,FlowAlarm;OPCInstrumentWarning,0828.0,5.01,0.00,28.9,26.0,00.0,38.2,30.6,15.3,0038.88,0027.95
2021-08-11 04:33:00,FlowAlarm;OPCInstrumentWarning,0828.1,4.99,0.00,28.8,26.5,00.0,38.1,30.7,15.3,0040.03,0028.00
2021-08-11 04:34:00,FlowAlarm;OPCInstrumentWarning,0828.0,5.00,0.00,28.9,26.9,00.0,38.1,30.8,15.5,0040.36,0027.98
2021-08-11 04:35:00,FlowAlarm;OPCInstrumentWarning,0828.1,4.99,0.00,28.9,27.3,00.0,38.1,30.9,15.4,0039.84,0027.87
2021-08-11 04:36:00,FlowAlarm;OPCInstrumentWarning,0828.0,4.99,0.00,28.9,27.6,00.0,38.1,30.9,15.4,0039.71,0027.82
2021-08-11 04:37:00,FlowAlarm;OPCInstrumentWarning,0828.0,5.01,0.00,29.0,27.8,00.0,38.1,31.0,15.5,0039.65,0027.79
2021-08-11 04:38:00,FlowAlarm;OPCInstrumentWarning,0828.0,5.01,0.00,29.0,28.0,00.0,38.1,31.0,15.5,0039.52,0027.75
2021-08-11 04:39:00,FlowAlarm;OPCInstrumentWarning,0828.0,4.99,0.00,29.1,28.2,00.0,38.2,31.1,15.4,0039.40,0027.78
2021-08-11 04:40:00,FlowAlarm;OPCInstrumentWarning,0828.1,5.00,0.00,29.1,28.3,00.0,38.2,31.2,15.3,0039.58,0027.84
2021-08-11 04:41:00,FlowAlarm;OPCInstrumentWarning,0828.0,5.01,0.00,29.2,28.4,00.0,38.2,31.2,15.5,0039.52,0027.86
2021-08-11 04:42:00,FlowAlarm;OPCInstrumentWarning,0828.1,4.98,0.00,29.2,28.5,00.0,38.2,31.3,15.7,0039.38,0027.81
2021-08-11 04:43:00,FlowAlarm;OPCInstrumentWarning,0828.0,5.00,0.00,29.3,28.6,00.0,38.3,31.3,15.3,0038.62,0027.77
2021-08-11 04:44:00,FlowAlarm;OPCInstrumentWarning,0828.0,5.01,0.00,29.3,28.7,00.0,38.3,31.4,15.4,0037.76,0027.74
2021-08-11 04:45:00,FlowAlarm;OPCInstrumentWarning,0828.0,5.00,0.00,29.3,27.5,00.0,38.3,31.1,15.4,0038.01,0027.78
2021-08-11 04:46:00,FlowAlarm;OPCInstrumentWarning,0828.0,4.99,0.00,29.2,25.7,00.0,38.3,30.6,15.5,0038.03,0027.80
2021-08-11 04:47:00,FlowAlarm;OPCInstrumentWarning,0828.0,4.99,0.00,29.0,25.4,00.0,38.3,30.5,15.7,0038.55,0027.82
2021-08-11 04:48:00,FlowAlarm;OPCInstrumentWarning,0828.0,5.02,0.00,28.9,25.8,00.0,38.2,30.5,15.6,0038.75,0027.82
2021-08-11 04:49:00,FlowAlarm;OPCInstrumentWarning,0828.0,4.99,0.00,28.8,26.2,00.0,38.2,30.6,15.5,0039.01,0027.84
2021-08-11 04:50:00,FlowAlarm;OPCInstrumentWarning,0827.9,5.00,0.00,28.8,26.7,00.0,38.1,30.7,15.5,0038.77,0027.77
2021-08-11 04:51:00,FlowAlarm;OPCInstrumentWarning,0828.0,5.00,0.00,28.9,27.1,00.0,38.1,30.8,15.8,0039.09,0027.71
2021-08-11 04:52:00,FlowAlarm;OPCInstrumentWarning,0828.0,5.01,0.00,28.9,27.4,00.0,38.1,30.8,15.8,0039.31,0027.69
2021-08-11 04:53:00,FlowAlarm;OPCInstrumentWarning,0828.0,4.99,0.00,28.9,27.7,00.0,38.1,30.9,15.7,0039.33,0027.68
2021-08-11 04:54:00,FlowAlarm;OPCInstrumentWarning,0828.0,5.00,0.00,29.0,27.9,00.0,38.1,31.0,15.5,0039.52,0027.68
2021-08-11 04:55:00,FlowAlarm;OPCInstrumentWarning,0828.0,5.02,0.00,29.0,28.1,00.0,38.2,31.0,15.4,0039.85,0027.65
2021-08-11 04:56:00,FlowAlarm;OPCInstrumentWarning,0828.0,4.99,0.00,29.1,28.2,00.0,38.2,31.1,15.3,0039.17,0027.61
2021-08-11 04:57:00,FlowAlarm;OPCInstrumentWarning,0828.0,5.00,0.00,29.1,28.3,00.0,38.2,31.2,15.3,0039.08,0027.54
2021-08-11 04:58:00,FlowAlarm;OPCInstrumentWarning,0828.1,5.01,0.00,29.2,28.4,00.0,38.2,31.2,15.2,0038.51,0027.49
2021-08-11 04:59:00,FlowAlarm;OPCInstrumentWarning,0828.1,4.98,0.00,29.2,28.5,00.0,38.3,31.3,14.9,0038.67,0027.49
